Regional Weather Roundup
Issued by NWS

Home | Current Version | Previous Version | Graphics & Text | Print | Product List | Glossary On
Versions: 1 2 3 4 5 6 7 8 9 10 11 12 13 14 15 16 17 18 19 20 21 22 23 24 25 26 27 28 29 30 31 32 33 34 35 36 37 38 39 40 41 42 43 44 45 46 47 48 49 50
966
ASUS43 KFSD 261610
RWRSD

WEATHER ROUNDUP FOR SOUTH DAKOTA
NATIONAL WEATHER SERVICE SIOUX FALLS SD
1100 AM CDT FRI MAY 26 2017

NOTE: "FAIR" INDICATES FEW OR NO CLOUDS BELOW 12,000 FEET WITH NO
SIGNIFICANT WEATHER AND/OR OBSTRUCTIONS TO VISIBILITY.


SDZ001>005-009-010-012>017-261700-
NORTHWEST AND NORTH CENTRAL SOUTH DAKOTA

CITY           SKY/WX    TMP DP  RH WIND       PRES   REMARKS
BUFFALO          N/A     58  36  43 W23G33    29.82R
FAITH            N/A     60  39  45 NW29G36   29.86R
MOBRIDGE       SUNNY     61  40  45 NW18G25   29.79R
$$

SDZ012>016-024>037-041>051-057-063-072>074-261700-
SOUTHWEST AND SOUTH CENTRAL SOUTH DAKOTA

CITY           SKY/WX    TMP DP  RH WIND       PRES   REMARKS
RAPID CTY ARPT SUNNY     62  34  35 N10       29.91S
PIERRE         SUNNY     63  39  41 NW21      29.84F
CUSTER         SUNNY     54  25  32 NW7       29.94S
ELLSWORTH AFB  SUNNY     62  34  35 N17G24    29.90S
PHILIP         SUNNY     65  37  35 NW23G32   29.87F
PINE RIDGE     SUNNY     62  35  36 N10       29.93S
SPEARFISH      FAIR      57  37  47 NW13G24   29.93S
WINNER         FAIR      64  41  42 NW14      29.90R
$$

SDZ004>011-016>023-039-040-261700-
NORTHEAST SOUTH DAKOTA

CITY           SKY/WX    TMP DP  RH WIND       PRES   REMARKS
ABERDEEN       SUNNY     64  39  39 W16G26    29.78S
WATERTOWN      SUNNY     62  48  60 NW13      29.77S
BROOKINGS      SUNNY     64  49  57 W14       29.79R
SISSETON         N/A     67  49  52 NW18G25   29.73R
$$

SDZ017-020-022-023-036>040-048>070-261700-
SOUTHEAST SOUTH DAKOTA

CITY           SKY/WX    TMP DP  RH WIND       PRES   REMARKS
SIOUX FALLS    MOSUNNY   68  51  54 NW16      29.79F
HURON          SUNNY     65  43  44 NW16      29.81S
CHAMBERLAIN    SUNNY     65  43  45 NW14      29.87R
MITCHELL       SUNNY     67  46  47 W15       29.83S
YANKTON          N/A     66  48  52 NW16      29.84R
$$

ABBREVIATIONS USED IN REMARKS
   TC - TEMPERATURE IN CELSIUS
  WCI - WIND CHILL INDEX
   HX - HEAT INDEX
  VSB - VISIBILITY





USA.gov is the U.S. government's official web portal to all federal, state and local government web resources and services.